EA1BQO-1 Weather Reports


time (UTC)temp
F
wind
direction
speed
knots
gust
knots
rain 1hr
in
rain 24hr
in
rain mn
in
humidity
%
barometer
mb
20260905202300 70 111 3.5 7.0 0.00 0.00 0.00 65 1019.1
20260905201400 71 126 2.6 7.0 0.00 0.00 0.00 62 1019.2
20260905200500 72 132 3.5 7.0 0.00 0.00 0.00 61 1019.4
20260905195600 72 95 3.5 7.8 0.00 0.00 0.00 60 1019.3
20260905194700 74 136 2.6 7.0 0.00 0.00 0.00 54 1019.6
20260905193800 76 146 3.5 6.1 0.00 0.00 0.00 46 1019.4
20260905192900 78 56 1.7 2.6 0.00 0.00 0.00 35 1019.2
20260905192000 79 60 1.7 3.5 0.00 0.00 0.00 29 1019.3
20260905191100 81 52 1.7 3.5 0.00 0.00 0.00 25 1019.5
20260905190200 82 352 1.7 4.3 0.00 0.00 0.00 21 1019.3
20260905185300 83 282 0.9 9.6 0.00 0.00 0.00 19 1019.2
20260905184400 83 241 3.5 13.0 0.00 0.00 0.00 12 1019.2
20260905183500 84 226 5.2 9.6 0.00 0.00 0.00 11 1019.0
20260905182600 85 214 3.5 13.0 0.00 0.00 0.00 10 1018.8
20260905181700 85 215 4.3 12.2 0.00 0.00 0.00 10 1018.6
20260905180800 86 224 8.7 14.8 0.00 0.00 0.00 10 1018.3
20260905175900 86 167 4.3 18.2 0.00 0.00 0.00 10 1018.2
20260905175000 87 175 9.6 17.4 0.00 0.00 0.00 10 1018.0
20260905174100 88 200 5.2 17.4 0.00 0.00 0.00 10 1017.6
20260905173200 89 212 9.6 16.5 0.00 0.00 0.00 10 1017.1
20260905172300 90 209 1.7 7.8 0.00 0.00 0.00 10 1016.8
20260905171400 90 199 1.7 9.6 0.00 0.00 0.00 10 1016.9
20260905170500 91 143 2.6 10.4 0.00 0.00 0.00 10 1016.7
20260905165600 92 174 3.5 8.7 0.00 0.00 0.00 10 1017.0
20260905164700 92 209 1.7 9.6 0.00 0.00 0.00 10 1016.9
20260905163800 91 208 1.7 11.3 0.00 0.00 0.00 10 1016.9
20260905162900 90 185 3.5 9.6 0.00 0.00 0.00 10 1017.0
20260905162000 91 185 3.5 13.0 0.00 0.00 0.00 10 1016.9
20260905161100 91 183 6.1 13.0 0.00 0.00 0.00 10 1016.6
20260905160200 92 195 6.1 12.2 0.00 0.00 0.00 10 1016.7
20260905155300 92 174 4.3 12.2 0.00 0.00 0.00 10 1016.6
20260905154400 92 168 1.7 10.4 0.00 0.00 0.00 10 1016.7
20260905153500 93 192 3.5 8.7 0.00 0.00 0.00 10 1016.7
20260905152600 93 193 3.5 7.8 0.00 0.00 0.00 10 1016.7
20260905151700 93 178 2.6 8.7 0.00 0.00 0.00 10 1016.7
20260905150800 93 130 5.2 7.8 0.00 0.00 0.00 10 1016.8
20260905145900 92 140 3.5 9.6 0.00 0.00 0.00 10 1016.7
20260905145000 92 142 3.5 9.6 0.00 0.00 0.00 10 1016.7
20260905144100 92 138 4.3 9.6 0.00 0.00 0.00 10 1016.7
20260905143200 93 141 1.7 9.6 0.00 0.00 0.00 10 1016.7
20260905142300 92 129 3.5 11.3 0.00 0.00 0.00 10 1016.6
20260905141400 93 134 7.0 11.3 0.00 0.00 0.00 10 1016.6
20260905140500 93 144 3.5 9.6 0.00 0.00 0.00 10 1016.7
20260905135600 93 125 4.3 13.0 0.00 0.00 0.00 10 1016.8
20260905134700 94 120 7.0 13.0 0.00 0.00 0.00 10 1016.6
20260905133800 94 125 7.0 14.8 0.00 0.00 0.00 10 1016.7
20260905132900 94 109 9.6 14.8 0.00 0.00 0.00 10 1016.6
20260905132000 95 129 6.1 11.3 0.00 0.00 0.00 10 1016.6
20260905131100 96 145 5.2 11.3 0.00 0.00 0.00 10 1016.6
20260905130200 96 128 1.7 10.4 0.00 0.00 0.00 10 1016.7
20260905125300 96 120 2.6 12.2 0.00 0.00 0.00 10 1016.7
20260905124400 95 136 4.3 9.6 0.00 0.00 0.00 10 1016.7
20260905123500 94 114 3.5 9.6 0.00 0.00 0.00 10 1016.8
20260905122600 94 122 3.5 11.3 0.00 0.00 0.00 10 1016.7
20260905121700 94 114 3.5 11.3 0.00 0.00 0.00 10 1016.8
20260905120800 94 129 1.7 8.7 0.00 0.00 0.00 10 1016.7
20260905115900 94 88 3.5 13.0 0.00 0.00 0.00 10 1017.0
20260905115000 94 87 2.6 10.4 0.00 0.00 0.00 10 1017.0
20260905114100 94 108 6.1 10.4 0.00 0.00 0.00 10 1017.0
20260905113200 94 99 3.5 9.6 0.00 0.00 0.00 10 1017.0
20260905112300 95 101 3.5 10.4 0.00 0.00 0.00 10 1017.1
20260905111400 94 95 3.5 7.8 0.00 0.00 0.00 10 1017.3
20260905110500 94 108 1.7 8.7 0.00 0.00 0.00 10 1017.4
20260905105600 94 95 5.2 9.6 0.00 0.00 0.00 10 1017.4
20260905104700 93 93 3.5 9.6 0.00 0.00 0.00 10 1017.4
20260905103800 92 94 2.6 7.0 0.00 0.00 0.00 10 1017.5
20260905102900 89 295 3.5 7.0 0.00 0.00 0.00 16 1017.8
20260905102000 87 286 1.7 5.2 0.00 0.00 0.00 24 1018.0
20260905101100 87 311 1.7 3.5 0.00 0.00 0.00 22 1017.9
20260905100200 86 301 1.7 3.5 0.00 0.00 0.00 25 1018.0
20260905095300 85 324 0.9 3.5 0.00 0.00 0.00 28 1018.0
20260905094400 83 347 0.0 2.6 0.00 0.00 0.00 30 1018.1
20260905093500 82 279 1.7 3.5 0.00 0.00 0.00 32 1018.2
20260905092600 81 311 1.7 3.5 0.00 0.00 0.00 34 1018.1
20260905091700 80 83 1.7 3.5 0.00 0.00 0.00 37 1018.3
20260905090800 78 264 0.0 2.6 0.00 0.00 0.00 39 1018.3
20260905085900 76 218 0.0 1.7 0.00 0.00 0.00 42 1018.6
20260905085000 75 334 0.0 1.7 0.00 0.00 0.00 45 1018.6
20260905084100 74 353 0.9 1.7 0.00 0.00 0.00 48 1018.6
20260905083200 72 306 0.0 1.7 0.00 0.00 0.00 50 1018.8
20260905082300 72 309 0.0 1.7 0.00 0.00 0.00 51 1018.6
20260905081400 71 317 0.9 1.7 0.00 0.00 0.00 55 1018.7
20260905080500 70 335 0.0 1.7 0.00 0.00 0.00 58 1018.9
20260905075600 69 316 0.0 1.7 0.00 0.00 0.00 61 1019.0
20260905074700 69 324 0.0 1.7 0.00 0.00 0.00 60 1018.9
20260905073800 68 358 0.0 1.7 0.00 0.00 0.00 60 1018.9
20260905072900 68 0 0.0 0.0 0.00 0.00 0.00 62 1018.7
20260905072000 67 0 0.0 0.0 0.00 0.00 0.00 61 1018.8
20260905071100 67 0 0.0 0.0 0.00 0.00 0.00 61 1018.7
20260905070200 67 181 0.0 0.9 0.00 0.00 0.00 60 1018.8
20260905065300 67 225 0.0 1.7 0.00 0.00 0.00 59 1018.7
20260905064400 67 265 0.9 1.7 0.00 0.00 0.00 59 1018.8
20260905063500 68 278 0.9 1.7 0.00 0.00 0.00 57 1018.7
20260905062600 68 215 0.9 1.7 0.00 0.00 0.00 55 1018.6
20260905061700 68 136 0.0 2.6 0.00 0.00 0.00 54 1018.7
20260905060800 68 135 1.7 3.5 0.00 0.00 0.00 54 1018.8
20260905055900 68 123 1.7 3.5 0.00 0.00 0.00 55 1018.8
20260905055000 68 97 0.0 3.5 0.00 0.00 0.00 56 1018.6
20260905054100 68 34 0.9 1.7 0.00 0.00 0.00 56 1018.8
20260905053200 67 80 0.0 1.7 0.00 0.00 0.00 57 1018.8
20260905052300 67 103 0.9 4.3 0.00 0.00 0.00 58 1019.0
20260905051400 67 92 1.7 3.5 0.00 0.00 0.00 60 1019.1
20260905050500 67 8 1.7 3.5 0.00 0.00 0.00 57 1019.1
20260905045600 67 28 1.7 1.7 0.00 0.00 0.00 56 1019.3
20260905044700 67 54 0.9 2.6 0.00 0.00 0.00 56 1019.4
20260905043800 67 79 0.0 2.6 0.00 0.00 0.00 56 1019.5
20260905042900 67 86 0.9 3.5 0.00 0.00 0.00 58 1019.6
20260905042000 67 82 0.9 3.5 0.00 0.00 0.00 58 1019.5
20260905041100 67 79 1.7 3.5 0.00 0.00 0.00 58 1019.5
20260905040200 67 54 0.0 2.6 0.00 0.00 0.00 58 1019.6
20260905035300 67 46 0.9 3.5 0.00 0.00 0.00 57 1019.6
20260905034400 67 73 0.9 4.3 0.00 0.00 0.00 58 1019.6
20260905033500 67 78 1.7 4.3 0.00 0.00 0.00 59 1019.5
20260905032600 66 71 1.7 5.2 0.00 0.00 0.00 60 1019.4
20260905031700 66 62 0.0 2.6 0.00 0.00 0.00 62 1019.4
20260905030800 65 0 0.0 0.0 0.00 0.00 0.00 62 1019.4
20260905025900 65 0 0.0 0.0 0.00 0.00 0.00 62 1019.4
20260905025000 66 358 0.0 0.9 0.00 0.00 0.00 61 1019.5
20260905024100 66 239 0.0 2.6 0.00 0.00 0.00 61 1019.3
20260905023200 66 130 0.9 3.5 0.00 0.00 0.00 62 1019.3
20260905022300 65 146 1.7 3.5 0.00 0.00 0.00 62 1019.3
20260905021400 66 181 0.9 1.7 0.00 0.00 0.00 59 1019.4
20260905020500 66 181 0.0 1.7 0.00 0.00 0.00 56 1019.3
20260905015600 67 93 0.0 1.7 0.00 0.00 0.00 56 1019.1
20260905014700 67 99 0.0 1.7 0.00 0.00 0.00 55 1019.1
20260905013759 68 88 0.9 3.5 0.00 0.00 0.00 54 1019.1
20260905012900 68 56 0.0 2.6 0.00 0.00 0.00 53 1019.0
20260905011959 68 62 0.9 3.5 0.00 0.00 0.00 53 1019.2
20260905011100 68 67 1.7 3.5 0.00 0.00 0.00 53 1019.1
20260905010159 68 85 0.9 3.5 0.00 0.00 0.00 55 1019.1
20260905005300 68 67 1.7 3.5 0.00 0.00 0.00 54 1018.9
20260905004359 69 104 1.7 3.5 0.00 0.00 0.00 53 1019.5
20260905003500 69 61 1.7 3.5 0.00 0.00 0.00 52 1019.5
20260905002600 69 128 0.0 5.2 0.00 0.00 0.00 53 1019.9
20260905001659 68 109 2.6 5.2 0.00 0.00 0.00 55 1019.6
20260905000759 68 91 1.7 2.6 0.00 0.00 0.00 56 1019.9
20260904235859 67 118 0.9 2.6 0.00 0.00 0.00 56 1020.1
20260904234959 67 117 1.7 3.5 0.00 0.00 0.00 58 1020.3
20260904234059 67 121 0.9 1.7 0.00 0.00 0.00 58 1020.1
20260904233200 67 97 0.0 1.7 0.00 0.00 0.00 57 1020.2
20260904232300 67 101 0.9 1.7 0.00 0.00 0.00 56 1020.5
20260904231359 68 219 0.0 1.7 0.00 0.00 0.00 54 1020.4
20260904230459 68 189 0.9 1.7 0.00 0.00 0.00 53 1020.2
20260904225600 69 118 1.7 2.6 0.00 0.00 0.00 53 1020.0
20260904224659 69 71 0.9 2.6 0.00 0.00 0.00 51 1019.9
20260904223759 69 74 0.9 1.7 0.00 0.00 0.00 49 1019.9
20260904222859 70 137 0.0 2.6 0.00 0.00 0.00 49 1019.8
20260904221959 70 143 0.0 2.6 0.00 0.00 0.00 49 1019.7
20260904221059 70 107 0.0 1.7 0.00 0.00 0.00 48 1019.6
20260904220159 71 106 0.9 3.5 0.00 0.00 0.00 48 1019.7
20260904215259 70 119 2.6 3.5 0.00 0.00 0.00 49 1019.6
20260904214359 71 91 0.9 2.6 0.00 0.00 0.00 45 1019.9
20260904213459 71 111 0.9 1.7 0.00 0.00 0.00 44 1019.9
20260904212559 71 90 0.0 1.7 0.00 0.00 0.00 43 1019.8
20260904211659 72 93 0.0 1.7 0.00 0.00 0.00 43 1020.0
20260904210759 72 83 0.9 1.7 0.00 0.00 0.00 39 1020.0
20260904205859 73 106 0.0 2.6 0.00 0.00 0.00 39 1020.0
20260904204959 74 146 1.7 3.5 0.00 0.00 0.00 37 1019.8
20260904204059 75 134 1.7 3.5 0.00 0.00 0.00 36 1019.8
20260904203159 76 90 1.7 2.6 0.00 0.00 0.00 36 1019.8